Wind_Speed
32 31 31 31 30 30 29 28 26 24 22 21 21 20 19 19 20 19 18 18 18 18 17 17 16 15 14 13 12 12 12 12 12 12 12 12 12 12 12 13 12 12
33 32 32 32 32 31 30 29 27 25 23 23 23 22 21 21 20 19 19 18 18 18 17 17 17 16 15 14 13 13 13 13 13 13 12 13 12 12 13 13 13 13
35 34 33 34 33 32 31 30 28 26 24 24 23 23 23 23 22 20 20 19 18 18 18 18 17 17 17 16 15 14 14 14 14 14 14 14 14 13 13 13 13 13
37 36 35 35 34 33 31 30 28 26 25 24 24 23 24 26 25 23 21 20 19 18 18 19 18 17 17 16 16 16 15 15 16 15 15 16 15 15 14 13 13 13
38 37 36 36 35 33 31 30 30 28 26 26 26 25 24 25 26 24 21 20 19 19 19 19 18 18 18 17 16 15 15 16 16 15 15 17 16 16 16 15 15 15
38 37 37 36 35 33 32 32 32 30 29 28 27 26 25 25 26 25 23 21 20 19 19 20 20 20 19 18 17 17 17 16 16 15 16 17 16 16 16 16 17 18
40 38 37 36 35 34 33 33 32 31 31 30 28 28 27 26 26 26 25 23 22 21 21 22 22 21 21 20 19 19 19 18 17 16 17 17 16 16 17 18 18 19
40 39 38 36 36 35 34 34 33 32 31 30 29 29 28 27 27 26 25 24 24 24 23 24 24 24 22 22 21 21 20 18 17 16 17 18 17 18 18 18 18 19
40 40 38 37 36 36 35 34 33 32 31 31 31 30 29 28 28 27 26 26 25 25 26 26 25 25 23 23 23 22 21 20 17 16 16 17 17 17 16 15 16 18
40 40 39 38 38 37 36 35 33 32 31 31 31 31 30 29 28 27 27 26 26 26 26 26 26 25 24 24 24 23 23 22 21 20 19 17 17 16 15 14 14 15
40 40 40 40 39 38 37 36 33 32 31 31 31 31 31 29 28 28 27 27 26 26 27 27 26 25 24 24 23 23 23 23 22 21 19 19 19 18 18 17 16 17
42 41 41 41 40 39 37 35 33 33 32 31 31 31 31 30 29 28 28 27 27 27 27 26 25 25 24 24 23 22 21 20 19 18 18 18 19 18 19 19 19 21
44 44 43 42 41 39 37 35 33 32 32 31 31 31 30 30 29 28 28 27 27 27 27 26 25 24 24 24 22 20 19 19 18 18 18 18 18 18 18 19 21 24
45 45 43 41 39 38 35 33 32 31 31 30 30 30 30 30 29 28 28 27 28 28 27 26 25 25 25 24 20 18 18 19 19 18 19 18 17 18 18 18 21 24
45 43 40 38 37 35 33 33 32 30 30 29 29 30 30 29 29 28 28 27 28 27 27 26 25 26 25 21 18 19 21 20 19 18 19 18 18 18 18 19 20 23
42 39 37 36 35 34 33 32 31 30 29 28 29 29 29 28 28 27 28 28 28 27 27 26 26 27 24 20 19 21 23 22 20 19 18 18 18 18 19 20 21 23
39 37 35 35 34 32 32 31 30 29 28 28 28 28 28 28 27 27 27 28 28 27 27 27 28 27 23 21 22 23 23 24 24 22 20 20 20 20 21 21 23 25
37 36 35 35 34 32 31 30 29 28 27 27 28 28 27 27 27 28 28 27 27 27 28 28 28 26 23 22 24 24 24 25 25 25 25 25 25 25 24 23 22 23
36 36 36 35 34 33 30 29 29 28 28 28 28 27 26 27 27 28 28 27 27 27 28 29 29 27 24 23 24 24 25 25 24 25 25 25 26 26 26 25 24 25
34 35 35 35 35 33 30 28 28 29 29 28 27 26 26 27 28 28 28 28 28 28 28 29 29 28 25 24 24 24 24 24 24 24 24 24 24 23 23 24 24 24
32 32 33 33 33 31 29 28 28 28 28 28 27 27 28 28 28 28 28 28 28 27 28 29 30 28 25 24 24 24 24 24 24 25 25 24 24 24 23 23 22 23
31 31 30 29 29 28 28 29 29 29 29 28 27 27 27 27 27 27 27 27 27 27 27 29 30 28 25 24 24 23 23 23 23 23 24 24 24 24 24 24 24 24
30 30 29 28 27 28 29 30 30 30 30 28 27 27 27 27 27 27 27 26 26 26 26 28 30 28 24 23 22 21 21 22 22 22 22 22 23 23 23 24 25 26
28 29 29 28 28 30 31 31 30 30 30 28 28 28 27 27 27 26 25 25 25 25 25 25 26 26 22 20 21 21 20 21 21 20 20 20 21 22 22 23 25 27
27 29 30 30 30 30 31 31 31 30 29 28 28 28 27 25 24 23 22 22 22 24 23 21 23 26 23 20 20 20 20 20 19 19 20 20 20 20 21 22 24 23
27 29 31 31 31 31 30 30 30 29 27 27 27 26 25 23 22 21 22 21 21 22 22 21 22 25 24 20 19 20 20 20 19 19 19 19 19 19 19 19 19 19
Wind_Direction
240 242 242 244 245 248 250 249 247 244 242 241 240 241 240 237 236 236 238 240 242 243 244 242 242 243 244 243 242 246 251 253 252 250 248 246 244 242 240 239 236 234
238 240 241 241 242 244 247 248 247 245 242 241 241 242 240 238 237 235 238 240 242 243 243 241 241 243 242 239 240 247 252 253 253 252 251 248 246 243 241 239 236 235
237 238 238 239 240 243 245 247 247 245 242 242 241 240 239 239 238 238 239 239 240 241 240 241 243 242 239 239 244 249 251 252 253 254 253 251 248 245 242 240 238 236
236 237 238 239 241 243 244 244 244 242 239 239 238 237 238 241 241 241 239 236 237 239 239 242 242 238 238 242 248 249 250 253 256 256 254 253 250 246 244 242 240 239
237 237 238 239 240 240 240 240 241 240 237 236 237 237 238 240 241 240 236 234 235 237 238 239 236 236 240 244 245 247 251 255 256 254 252 253 251 248 247 244 242 243
236 236 237 238 238 238 237 238 239 240 239 237 237 238 237 238 239 237 235 235 235 236 236 235 235 239 244 245 245 249 253 257 257 253 250 251 251 248 249 249 249 250
234 235 236 235 236 236 235 237 238 239 239 238 237 237 236 236 236 235 236 238 238 237 236 236 239 241 244 246 248 252 256 258 257 253 248 248 250 248 248 250 252 253
233 233 234 234 234 233 234 235 236 237 238 237 236 236 235 234 234 235 238 239 239 239 239 240 242 244 246 248 249 252 256 257 255 251 248 248 248 247 247 248 250 251
232 231 231 232 231 231 232 233 235 237 237 235 235 236 235 234 235 237 239 240 241 242 242 242 242 244 247 249 251 253 255 256 252 247 246 246 244 244 243 242 243 246
232 230 229 229 229 230 232 233 234 235 235 234 234 235 235 236 237 239 240 241 242 243 242 241 241 244 247 250 252 254 256 257 255 250 247 246 244 243 243 241 240 241
231 229 227 227 227 230 232 233 233 233 233 233 233 234 236 238 239 240 241 241 242 241 240 239 241 244 248 251 253 255 256 257 256 252 247 246 247 246 245 243 241 242
230 228 227 226 226 228 230 231 232 232 233 234 234 235 236 237 239 240 241 241 240 239 238 239 242 245 248 252 254 255 255 253 250 247 245 245 245 245 244 242 241 244
231 229 227 226 226 228 229 230 231 232 234 234 234 235 236 237 239 240 241 241 239 238 238 239 243 245 248 252 254 253 252 249 245 244 245 244 243 242 242 242 242 245
234 232 229 227 227 228 228 229 231 233 234 235 235 235 236 238 239 239 240 239 239 239 238 240 242 244 248 251 250 245 244 245 243 242 242 242 241 242 241 241 244 247
238 234 230 228 227 227 227 229 231 233 234 235 234 235 237 238 239 238 238 238 238 238 238 240 241 244 247 248 244 243 243 242 240 239 241 240 240 242 242 242 245 248
240 235 229 227 226 226 226 227 230 232 234 234 234 236 237 238 238 238 237 237 236 236 238 240 242 246 248 245 242 245 247 245 240 237 237 238 240 243 245 244 245 248
240 235 229 226 226 225 225 226 228 231 232 233 234 236 237 238 238 237 236 236 235 236 240 241 245 248 249 247 245 245 247 248 245 241 238 238 241 244 246 248 251 255
241 234 228 226 225 224 224 225 227 229 231 232 232 234 236 237 236 235 234 234 235 238 241 244 248 251 251 250 249 245 243 244 246 245 244 245 247 248 249 249 249 255
243 233 227 225 224 223 223 224 225 227 228 229 231 232 233 234 233 233 233 234 236 239 243 247 252 254 253 251 250 247 244 242 242 243 242 243 245 247 250 251 250 255
244 234 228 225 223 222 221 221 223 225 226 228 228 228 229 229 230 232 233 235 237 241 246 251 255 258 257 253 250 247 245 242 242 242 241 241 242 242 245 249 251 254
245 236 230 227 223 221 220 220 221 222 224 225 226 226 227 228 229 232 233 236 239 243 249 255 258 260 257 252 249 247 245 244 244 243 243 242 242 242 242 244 247 249
248 237 231 227 222 219 218 218 219 221 223 224 225 226 227 228 229 232 235 237 241 246 252 257 261 260 255 251 249 247 245 244 242 242 242 240 241 242 242 244 246 247
252 239 233 227 221 218 218 218 219 221 223 223 222 223 225 227 229 232 235 239 244 249 254 258 262 262 255 250 248 244 242 241 240 241 241 239 240 241 240 243 246 248
256 241 233 228 222 220 220 219 219 222 223 222 222 223 225 228 231 233 237 241 245 250 253 255 261 263 257 249 248 244 240 239 240 241 242 240 240 240 240 242 246 250
258 242 233 227 224 223 222 220 220 223 223 223 224 225 227 230 232 233 236 240 243 249 251 251 257 263 260 252 249 245 240 238 237 238 240 239 238 239 241 241 244 248
258 243 233 227 225 224 222 221 222 222 221 220 223 225 226 228 230 232 235 240 244 249 254 253 254 259 260 255 250 247 241 236 234 236 237 236 237 240 238 236 237 241
Height
773 774 775 777 778 778 779 779 780 782 782 782 783 783 783 783 783 784 784 785 785 785 785 786 785 786 786 786 786 786 787 787 787 787 788 788 788 789 789 790 790 791
768 769 770 771 772 773 774 774 775 777 777 778 778 779 780 780 780 781 781 781 782 782 782 783 783 783 783 783 783 783 783 783 784 784 784 784 785 785 785 786 787 787
763 764 765 766 767 768 769 770 771 772 773 774 774 775 776 776 777 777 777 778 778 779 779 780 780 780 780 780 780 780 780 780 780 781 781 781 781 782 782 783 783 784
758 758 760 760 762 763 765 766 767 767 768 769 770 771 772 772 773 774 774 774 775 775 776 776 777 777 777 778 778 778 777 777 777 778 778 777 778 778 779 779 780 781
753 753 755 756 757 759 760 761 762 763 764 764 765 767 768 768 769 770 771 771 771 772 772 773 774 774 775 775 775 775 775 774 774 775 775 774 774 775 775 776 776 777
747 748 750 751 753 754 755 756 757 758 759 760 761 762 763 764 765 766 767 767 768 768 769 770 770 771 772 772 772 772 772 772 771 772 772 771 771 771 772 772 773 773
742 743 745 747 748 749 750 751 752 753 755 756 757 758 759 760 761 762 763 764 765 765 765 766 767 768 768 769 769 769 769 768 768 769 769 768 769 768 768 769 769 770
737 738 740 742 744 744 745 746 747 749 750 752 753 754 755 756 756 758 759 760 761 761 762 763 763 764 765 766 766 765 765 765 765 766 766 765 766 765 765 766 766 767
733 733 735 736 739 739 740 741 742 744 746 748 749 750 751 752 752 754 755 756 757 757 758 759 759 761 761 762 762 762 762 762 762 763 762 762 762 762 762 763 763 764
729 729 730 731 732 734 735 737 738 740 742 743 745 746 747 748 749 750 751 752 753 753 754 755 756 757 757 758 759 759 759 758 759 759 759 759 759 759 760 760 760 760
724 724 724 724 726 728 730 732 734 736 738 739 741 742 743 744 745 746 746 747 748 749 750 751 752 753 754 754 755 755 755 755 755 755 755 755 755 756 756 756 757 757
718 718 717 718 720 723 725 728 730 732 734 735 737 738 739 740 741 742 742 743 744 745 746 747 748 749 750 750 751 752 752 752 751 751 751 752 752 752 753 753 753 753
712 712 712 714 716 718 721 724 726 728 730 731 733 734 735 736 737 738 738 739 740 741 741 743 744 745 746 747 748 748 748 748 748 748 748 748 749 749 749 749 750 750
708 708 709 711 713 715 718 720 723 725 726 728 729 730 731 732 733 734 735 736 737 737 738 739 740 741 742 743 744 744 745 745 745 745 745 745 745 746 746 746 746 746
705 706 708 709 711 713 715 717 719 721 723 725 726 727 728 729 729 731 731 732 733 734 734 735 735 736 737 739 740 740 741 741 742 742 742 742 742 742 742 742 742 742
703 705 706 707 708 709 711 714 716 718 720 721 722 724 725 726 726 727 728 729 730 730 730 731 731 732 733 735 736 736 737 737 738 739 739 739 739 739 739 739 739 739
700 702 703 703 704 705 707 710 713 715 717 718 719 721 722 723 723 724 724 725 726 727 727 727 727 728 730 731 732 733 734 734 734 735 735 736 736 736 736 736 735 735
696 697 699 699 701 702 703 706 709 711 713 714 716 717 718 719 720 720 721 721 723 723 723 723 723 725 727 727 728 729 730 730 730 730 731 732 732 732 732 732 732 732
692 692 693 694 696 697 699 702 704 706 708 710 711 713 714 715 716 716 717 717 718 719 719 719 720 721 723 723 724 725 726 727 727 727 727 727 728 728 728 728 728 728
689 689 689 689 690 692 694 697 699 701 703 705 707 709 710 710 711 712 713 713 714 714 715 715 716 717 718 719 720 720 722 723 724 723 724 724 724 725 724 724 724 724
687 687 686 686 687 689 691 692 694 697 699 701 703 704 705 706 707 708 709 709 710 710 711 710 711 713 714 714 715 716 718 719 719 720 720 720 720 721 721 721 721 721
684 684 684 685 686 687 688 688 690 692 694 697 699 700 701 703 703 704 705 706 706 707 707 706 706 708 709 710 711 712 714 715 715 715 716 716 716 717 717 717 717 717
680 681 681 682 683 683 684 684 686 688 691 693 695 697 698 699 699 700 701 702 703 703 703 702 702 703 704 705 707 708 709 710 711 711 712 712 712 712 713 713 712 713
676 677 678 678 679 679 679 681 683 685 687 690 691 693 694 695 696 697 698 698 698 698 699 699 698 698 700 701 702 704 705 706 707 707 708 708 708 708 708 709 708 708
672 672 673 673 674 675 675 677 679 682 684 687 688 689 691 692 694 695 694 694 694 694 695 695 695 694 695 697 698 700 701 702 703 704 704 704 704 704 704 705 705 704
668 668 667 668 669 670 671 673 676 679 681 683 685 686 688 689 690 691 691 691 691 690 690 691 691 691 691 693 695 695 697 698 699 699 699 700 701 701 700 700 701 701